Location: Saint-Palais-sur-Mer
(45.6429°N, 1.0859°W)
Time: 00:44:20
(UTC+01:00)

Tiros 1 despin weight - Pass Details

Date: 08 February 2026
Orbit: 556 x 593 km, 48.2° (Epoch: 13 March)

Event Time Altitude Azimuth Distance (km) Brightness Sun altitude
Enters shadow 22:41:59 - 277° (W) 2,751 ? -45.0°
Rises 22:42:01 0° 278° (W) 2,737 - -45.0°
Reaches altitude 10° 22:44:17 10° 282° (WNW) 1,845 - -45.3°
Maximum altitude 22:48:28 60° 3° (N) 644 - -45.9°
Drops below altitude 10° 22:52:41 10° 84° (E) 1,864 - -46.5°
Sets 22:54:59 0° 88° (E) 2,768 - -46.9°
